Location: B�hl
(48.6968°N, 8.1352°E)
Time: 03:57:11
(UTC+00:00)

USA 306 - Pass Details

Date: 08 March 2021
Orbit: 564 x 577 km, 54.0° (Epoch: 17 April)

Event Time Altitude Azimuth Distance (km) Brightness Sun altitude
Rises 20:08:24 0° 297° (WNW) 2,772 7.7 -27.4°
Reaches altitude 10° 20:10:43 10° 291° (WNW) 1,869 6.5 -27.8°
Enters shadow 20:13:35 35° 263° (W) 919 4.3 -28.2°
